Regional Weather Roundup
Issued by NWS Sioux Falls, SD

Home | Current Version | Previous Version | Text Only | Print | Product List | Glossary On
Versions: 1 2 3 4 5 6 7 8 9 10 11 12 13 14 15 16 17 18 19 20 21 22 23 24 25 26 27 28 29 30 31 32 33 34 35 36 37 38 39 40 41 42 43 44 45 46 47 48 49 50
000
ASUS43 KFSD 221710
RWRFSD

WEATHER ROUNDUP FOR SE SOUTH DAKOTA/SW MINNESOTA/NW IOWA
NATIONAL WEATHER SERVICE SIOUX FALLS SD
1200 PM CDT MON MAY 22 2017

NOTE: "FAIR" INDICATES FEW OR NO CLOUDS BELOW 12,000 FEET WITH NO
SIGNIFICANT WEATHER AND OR OBSTRUCTIONS TO VISIBILITY.


SDZ038>040-050-052>070-221800-
SOUTHEAST SOUTH DAKOTA

CITY           SKY/WX    TMP DP  RH WIND       PRES   REMARKS
BROOKINGS      MOSUNNY   60  48  64 W13       29.88R
CHAMBERLAIN    CLOUDY    59  50  70 NW13      29.94S
HURON          LGT RAIN  51  50  96 NW13      29.89F
MADISON        FAIR      55  54  94 W13       29.89S
MITCHELL       CLOUDY    57  48  72 NW13G20   29.91F
SIOUX FALLS    PTSUNNY   62  52  69 W10       29.88S
WINNER         FAIR      61  49  64 NW14      29.96F
YANKTON          N/A     65  49  56 SW17G24   29.90F
$$

MNZ071-072-080-081-089-090-097-098-221800-
SOUTHWEST MINNESOTA

CITY           SKY/WX    TMP DP  RH WIND       PRES   REMARKS
FAIRMONT       SUNNY     62  50  64 N8        29.87F
JACKSON        SUNNY     61  43  51 CALM      29.88S
LUVERNE        SUNNY     63  37  39 NW3       29.88S
MARSHALL       SUNNY     58  47  66 NW5       29.88S
MONTEVIDEO     MOSUNNY   61  48  63 NW7       29.87F
PIPESTONE      MOSUNNY   64  37  36 SW5       29.87S
REDWOOD FALLS  SUNNY     61  44  53 NW8       29.86F
TRACY          SUNNY     61  48  64 N7        29.88S
WINDOM         SUNNY     63  46  55 N7        29.87S
WORTHINGTON    SUNNY     62  48  60 E5        29.88S
$$

IAZ001>003-012>014-020>022-031-032-NEZ013-014-SDZ071-221800-
NORTHWEST IOWA

CITY           SKY/WX    TMP DP  RH WIND       PRES   REMARKS
CHEROKEE       SUNNY     66  51  58 W9        29.87F
DENISON        SUNNY     68  52  56 W12       29.91F
ESTHERVILLE    SUNNY     63  48  58 CALM      29.86F
LE MARS        SUNNY     66  52  59 NW12      29.89F
ORANGE CITY    SUNNY     64  52  63 W12       29.88S
SHELDON          N/A     64  54  68 W10         N/A
SIOUX CITY     SUNNY     69  51  52 W13       29.89F
SPENCER        SUNNY     66  52  60 W12       29.87F
STORM LAKE     SUNNY     64  50  59 SW12G18   29.88F
$$

ABBREVIATIONS USED IN REMARKS
   TC - TEMPERATURE IN CELSIUS
  WCI - WIND CHILL INDEX
   HX - HEAT INDEX
  VSB - VISIBILITY




USA.gov is the U.S. government's official web portal to all federal, state and local government web resources and services.